TimeMDT,TemperatureF,Dew PointF,Humidity,Sea Level PressureIn,VisibilityMPH,Wind Direction,Wind SpeedMPH,Gust SpeedMPH,PrecipitationIn,Events,Conditions,WindDirDegrees,DateUTC
12:03 AM,57.2,57.2,100,30.18,3.0,SSE,15.0,-,N/A,,Overcast,160,2013-09-17 06:03:00
12:55 AM,57.0,57.0,100,30.03,7.0,SSE,13.8,-,N/A,,Overcast,160,2013-09-17 06:55:00
1:11 AM,57.2,57.2,100,30.17,10.0,SSE,13.8,-,N/A,,Overcast,160,2013-09-17 07:11:00
1:43 AM,57.2,57.2,100,30.16,9.0,South,8.1,18.4,N/A,,Overcast,190,2013-09-17 07:43:00
1:55 AM,57.9,57.0,97,30.00,10.0,South,10.4,-,N/A,,Overcast,180,2013-09-17 07:55:00
2:46 AM,57.2,57.2,100,30.14,10.0,South,12.7,-,N/A,,Overcast,180,2013-09-17 08:46:00
2:55 AM,57.9,57.0,97,29.97,10.0,South,12.7,-,N/A,,Overcast,180,2013-09-17 08:55:00
3:50 AM,57.2,57.2,100,30.11,9.0,South,13.8,-,N/A,,Overcast,180,2013-09-17 09:50:00
3:55 AM,57.0,57.0,100,29.95,9.0,South,13.8,-,N/A,,Overcast,180,2013-09-17 09:55:00
4:55 AM,57.0,55.9,96,29.94,8.0,South,10.4,18.4,N/A,,Overcast,180,2013-09-17 10:55:00
5:55 AM,55.9,55.9,100,29.94,5.0,South,8.1,-,N/A,,Overcast,180,2013-09-17 11:55:00
6:10 AM,55.4,55.4,100,30.10,2.5,South,9.2,-,N/A,,Overcast,170,2013-09-17 12:10:00
6:31 AM,55.4,55.4,100,30.10,0.8,South,8.1,-,N/A,,Mist,180,2013-09-17 12:31:00
6:55 AM,54.0,54.0,100,29.96,0.2,SSW,9.2,-,N/A,Fog,Fog,210,2013-09-17 12:55:00
7:55 AM,54.0,54.0,100,29.97,0.2,Variable,5.8,-,N/A,Fog,Fog,0,2013-09-17 13:55:00
8:09 AM,53.6,53.6,100,30.10,0.5,Variable,6.9,-,N/A,Fog,Fog,0,2013-09-17 14:09:00
8:16 AM,55.4,55.4,100,30.10,0.2,Variable,5.8,-,N/A,Fog,Fog,0,2013-09-17 14:16:00
8:42 AM,55.4,55.4,100,30.10,1.0,Variable,6.9,-,N/A,,Mist,0,2013-09-17 14:42:00
8:46 AM,55.4,55.4,100,30.10,3.0,Variable,5.8,-,N/A,,Overcast,0,2013-09-17 14:46:00
8:55 AM,55.9,55.0,97,29.96,5.0,SE,9.2,-,N/A,,Mostly Cloudy,140,2013-09-17 14:55:00
9:09 AM,57.2,55.4,94,30.10,10.0,SSE,8.1,-,N/A,,Scattered Clouds,160,2013-09-17 15:09:00
9:55 AM,66.0,55.0,68,29.93,10.0,SW,9.2,-,N/A,,Clear,230,2013-09-17 15:55:00
10:55 AM,75.0,54.0,48,29.88,10.0,SSE,8.1,-,N/A,,Clear,150,2013-09-17 16:55:00
11:55 AM,78.1,45.0,31,29.85,10.0,Variable,6.9,-,N/A,,Clear,0,2013-09-17 17:55:00
12:55 PM,81.0,48.9,33,29.82,10.0,SSE,9.2,18.4,N/A,,Clear,160,2013-09-17 18:55:00
1:55 PM,81.0,48.9,33,29.79,10.0,SSE,13.8,23.0,N/A,,Clear,150,2013-09-17 19:55:00
2:55 PM,80.1,48.0,32,29.77,10.0,SSE,10.4,21.9,N/A,,Clear,150,2013-09-17 20:55:00
3:55 PM,81.0,48.0,31,29.75,10.0,South,13.8,20.7,N/A,,Clear,170,2013-09-17 21:55:00
4:55 PM,80.1,46.9,31,29.74,10.0,South,9.2,21.9,N/A,,Clear,170,2013-09-17 22:55:00
5:55 PM,78.1,48.0,35,29.74,10.0,South,15.0,19.6,N/A,,Clear,170,2013-09-17 23:55:00
6:55 PM,71.1,52.0,51,29.76,10.0,SSE,11.5,-,N/A,,Clear,160,2013-09-18 00:55:00
7:55 PM,64.0,52.0,65,29.79,10.0,SSE,6.9,-,N/A,,Clear,150,2013-09-18 01:55:00
8:55 PM,61.0,53.1,75,29.80,10.0,SSE,9.2,-,N/A,,Clear,150,2013-09-18 02:55:00
9:55 PM,57.0,53.1,87,29.78,10.0,Variable,5.8,-,N/A,,Clear,0,2013-09-18 03:55:00
10:55 PM,57.9,52.0,81,29.73,10.0,SE,6.9,-,N/A,,Clear,130,2013-09-18 04:55:00
11:55 PM,59.0,54.0,83,29.71,10.0,SE,9.2,-,N/A,,Clear,130,2013-09-18 05:55:00